AEE763 DNPO-DNMM

Flight info

Callsign AEE763
Flight time N/A
Altitude 4500
Route PORTHARCOURT OFONI BOMADI OBORO GBAROGOLO NIKOROGHA AGGI GULANI UBACKE AWOYE ISEKUN EPE MOWE ILATE MURTALAMUHAMMED
Aircraft C310/L-SDFGR/S

Departure

Time 2026-04-22 09:00
Airport Port Harcourt International Airport (DNPO)

Arrival

Time N/A
Airport Murtala Muhammed International Airport (DNMM)
Time Latitude Longitude Altitude Speed Heading
2026-04-22 08:43 5.00872 6.94899 61 ft 0 kts 208°
2026-04-22 08:55 5.00869 6.94897 62 ft 2 kts 210°
2026-04-22 08:55 5.00854 6.94888 64 ft 3 kts 208°
2026-04-22 08:55 5.00839 6.94880 66 ft 2 kts 208°
2026-04-22 08:56 5.00823 6.94871 67 ft 2 kts 208°
2026-04-22 08:56 5.00818 6.94869 67 ft 1 kts 208°
2026-04-22 08:56 5.00809 6.94864 65 ft 3 kts 208°
2026-04-22 08:56 5.00791 6.94846 65 ft 3 kts 238°
2026-04-22 08:57 5.00774 6.94835 61 ft 3 kts 208°
2026-04-22 08:57 5.00749 6.94822 62 ft 5 kts 207°
2026-04-22 08:57 5.00748 6.94797 63 ft 8 kts 338°
2026-04-22 08:57 5.00801 6.94783 61 ft 7 kts 31°
2026-04-22 08:58 5.00824 6.94763 61 ft 6 kts 282°
2026-04-22 08:58 5.00837 6.94735 61 ft 0 kts 303°
2026-04-22 08:58 5.00847 6.94724 62 ft 7 kts 319°
2026-04-22 08:58 5.00968 6.94709 63 ft 26 kts
2026-04-22 08:59 5.01200 6.94774 66 ft 48 kts 28°
2026-04-22 08:59 5.01630 6.95001 67 ft 97 kts 27°
2026-04-22 08:59 5.02314 6.95377 249 ft 120 kts 28°
2026-04-22 08:59 5.03043 6.95805 683 ft 123 kts 29°
2026-04-22 09:00 5.03780 6.96213 1065 ft 123 kts 16°
2026-04-22 09:00 5.04602 6.96062 1382 ft 123 kts 314°
2026-04-22 09:00 5.05034 6.95360 1779 ft 118 kts 294°
2026-04-22 09:00 5.05441 6.94648 2207 ft 118 kts 296°
2026-04-22 09:01 5.05581 6.93854 2557 ft 120 kts 265°
2026-04-22 09:01 5.05540 6.93000 2868 ft 124 kts 263°
2026-04-22 09:01 5.05466 6.92127 3182 ft 127 kts 262°
2026-04-22 09:01 5.05377 6.91235 3485 ft 131 kts 261°
2026-04-22 09:02 5.05265 6.90309 3800 ft 136 kts 258°
2026-04-22 09:02 5.05109 6.89363 4116 ft 139 kts 257°
2026-04-22 09:02 5.04930 6.88386 4318 ft 147 kts 256°
2026-04-22 09:02 5.04723 6.87337 4424 ft 160 kts 256°
2026-04-22 09:03 5.04472 6.86212 4466 ft 171 kts 255°
2026-04-22 09:03 5.04196 6.85019 4485 ft 180 kts 254°
2026-04-22 09:03 5.03900 6.83770 4497 ft 187 kts 254°
2026-04-22 09:03 5.03591 6.82482 4494 ft 192 kts 254°
2026-04-22 09:04 5.03273 6.81167 4497 ft 196 kts 254°
2026-04-22 09:04 5.02930 6.79837 4498 ft 197 kts 248°
2026-04-22 09:04 5.02228 6.78665 4499 ft 196 kts 233°
2026-04-22 09:04 5.01440 6.77565 4499 ft 197 kts 232°
2026-04-22 09:05 5.00779 6.76354 4497 ft 199 kts 244°
2026-04-22 09:05 5.00288 6.75056 4496 ft 199 kts 250°
2026-04-22 09:05 4.99915 6.73716 4495 ft 200 kts 254°
2026-04-22 09:05 4.99611 6.72358 4496 ft 200 kts 256°
2026-04-22 09:06 4.99336 6.70995 4503 ft 200 kts 257°
2026-04-22 09:06 4.99118 6.69618 4498 ft 200 kts 262°
2026-04-22 09:06 4.98997 6.68223 4505 ft 201 kts 263°
2026-04-22 09:06 4.98868 6.66830 4507 ft 201 kts 262°
2026-04-22 09:07 4.98730 6.65431 4508 ft 202 kts 262°
2026-04-22 09:07 4.98595 6.64027 4506 ft 202 kts 262°
2026-04-22 09:07 4.98461 6.62621 4507 ft 203 kts 262°
2026-04-22 09:07 4.98326 6.61212 4497 ft 203 kts 262°
2026-04-22 09:08 4.98190 6.59808 4493 ft 202 kts 262°
2026-04-22 09:08 4.98102 6.58880 4502 ft 202 kts 262°
2026-04-22 09:08 4.97967 6.57479 4502 ft 202 kts 262°
2026-04-22 09:08 4.97832 6.56079 4501 ft 202 kts 263°
2026-04-22 09:09 4.97697 6.54673 4498 ft 202 kts 262°
2026-04-22 09:09 4.97564 6.53272 4494 ft 202 kts 263°
2026-04-22 09:09 4.97429 6.51877 4496 ft 201 kts 262°
2026-04-22 09:09 4.97295 6.50485 4501 ft 201 kts 263°
2026-04-22 09:10 4.97160 6.49092 4503 ft 201 kts 263°
2026-04-22 09:10 4.97027 6.47699 4502 ft 201 kts 263°
2026-04-22 09:10 4.96893 6.46302 4501 ft 201 kts 262°
2026-04-22 09:10 4.96758 6.44906 4501 ft 201 kts 262°
2026-04-22 09:11 4.96624 6.43510 4501 ft 202 kts 262°
2026-04-22 09:11 4.96488 6.42111 4494 ft 201 kts 262°
2026-04-22 09:11 4.96355 6.40717 4498 ft 201 kts 262°
2026-04-22 09:11 4.96221 6.39327 4498 ft 200 kts 263°
2026-04-22 09:12 4.96086 6.37933 4507 ft 201 kts 263°
2026-04-22 09:12 4.95953 6.36531 4510 ft 203 kts 262°
2026-04-22 09:12 4.95814 6.35119 4505 ft 204 kts 263°
2026-04-22 09:12 4.95679 6.33701 4497 ft 204 kts 263°
2026-04-22 09:13 4.95544 6.32308 4492 ft 203 kts 262°
2026-04-22 09:13 4.95408 6.30898 4504 ft 204 kts 262°
2026-04-22 09:13 4.95272 6.29484 4503 ft 204 kts 263°
2026-04-22 09:13 4.95164 6.28070 4491 ft 204 kts 271°
2026-04-22 09:14 4.95508 6.26689 4501 ft 205 kts 288°
2026-04-22 09:14 4.96047 6.25362 4495 ft 205 kts 292°
2026-04-22 09:14 4.96641 6.24062 4493 ft 205 kts 294°
2026-04-22 09:14 4.97339 6.22818 4494 ft 205 kts 301°
2026-04-22 09:15 4.98092 6.21612 4491 ft 204 kts 300°
2026-04-22 09:15 4.98833 6.20402 4494 ft 203 kts 300°
2026-04-22 09:15 4.99566 6.19193 4497 ft 203 kts 300°
2026-04-22 09:15 5.00307 6.17987 4497 ft 203 kts 300°
2026-04-22 09:16 5.01043 6.16781 4499 ft 203 kts 300°
2026-04-22 09:16 5.01782 6.15575 4497 ft 203 kts 300°
2026-04-22 09:16 5.02520 6.14363 4505 ft 204 kts 300°
2026-04-22 09:16 5.03262 6.13152 4491 ft 204 kts 300°
2026-04-22 09:17 5.04003 6.11940 4506 ft 204 kts 300°
2026-04-22 09:17 5.04743 6.10727 4494 ft 204 kts 300°
2026-04-22 09:17 5.05485 6.09515 4515 ft 205 kts 300°
2026-04-22 09:17 5.06231 6.08292 4507 ft 206 kts 300°
2026-04-22 09:18 5.06982 6.07064 4507 ft 207 kts 300°
2026-04-22 09:18 5.07733 6.05835 4495 ft 207 kts 300°
2026-04-22 09:18 5.08487 6.04600 4501 ft 208 kts 300°
2026-04-22 09:18 5.09244 6.03362 4518 ft 210 kts 300°
2026-04-22 09:19 5.10005 6.02115 4495 ft 209 kts 300°
2026-04-22 09:19 5.10766 6.00881 4540 ft 205 kts 300°
2026-04-22 09:19 5.11501 5.99672 4582 ft 203 kts 299°
2026-04-22 09:19 5.12238 5.98451 4527 ft 206 kts 300°
2026-04-22 09:20 5.12764 5.97231 4527 ft 200 kts 288°
2026-04-22 09:20 5.13476 5.95882 3999 ft 215 kts 307°
2026-04-22 09:20 5.14437 5.94783 4106 ft 205 kts 310°
2026-04-22 09:20 5.15319 5.93718 4279 ft 193 kts 303°